Preview of NWS' New Version of Forecast
This preview is not operational and should not be used for support decisions.

Regional Weather Roundup (RWR)

Issued by National Weather Service (NWS)

                            
000
ASUS43 KBIS 210602
RWRND 

NORTH DAKOTA REGIONAL WEATHER ROUNDUP
NATIONAL WEATHER SERVICE BISMARCK ND
100 AM CDT SAT SEP 21 2019

NOTE: "FAIR" INDICATES FEW OR NO CLOUDS BELOW 12,000 FEET WITH NO
SIGNIFICANT WEATHER AND/OR OBSTRUCTIONS TO VISIBILITY.


NDZ001>003-009>011-017-210700-
NORTHWEST NORTH DAKOTA
  
CITY           SKY/WX    TMP DP  RH WIND       PRES   REMARKS
WILLISTON      HVY RAIN  57  53  86 NW26G52   29.75R FOG              
6HR MIN TEMP:  57; 6HR MAX TEMP:  68; 6HR PCP:  0.15;                

MINOT          CLOUDY    63  61  93 N6        29.67R                  
$$
 
NDZ018>021-031>035-040>046-210700-
SOUTHWEST NORTH DAKOTA
  
CITY           SKY/WX    TMP DP  RH WIND       PRES   REMARKS
BISMARCK       CLOUDY    64  63  96 NE10      29.61F                  
6HR MIN TEMP:  63; 6HR MAX TEMP:  64; 6HR PCP:  0.95;                

DICKINSON      CLOUDY    63  62  97 NW7       29.69S                  
GARRISON         N/A     61  60  97 NE7       29.67R                  
6HR MIN TEMP:  60; 6HR MAX TEMP:  67;                                

HETTINGER ARPT RAIN      60  59  96 W20       29.73R                  
$$
 
NDZ004>008-012>016-024-026-027-054-210700-
NORTHEAST NORTH DAKOTA
  
CITY           SKY/WX    TMP DP  RH WIND       PRES   REMARKS
GRAND FORKS    RAIN      64  62  93 S3        29.71S FOG              
GRND FRKS AFB  LGT RAIN  63  63 100 SW5       29.72F                  
DEVILS LAKE    LGT RAIN  63  62  97 SW10      29.70R                  
$$
 
NDZ022-023-025-028>030-036>039-047>053-210700-
SOUTHEAST NORTH DAKOTA
  
CITY           SKY/WX    TMP DP  RH WIND       PRES   REMARKS
FARGO          CLOUDY    77  68  73 S18G29    29.69F                  
6HR MIN TEMP:  77; 6HR MAX TEMP:  83; 6HR PCP: TRACE;                

JAMESTOWN      LGT RAIN  63  60  90 E8G23     29.70F                  
$$